Back to catalog

THORAD AGENA D DEB

AlivePO
NORAD 4911·DEBRIS·🇺🇸 United States

Launched Apr 8, 1970 from Vandenberg Space Force Base

Loading…

Next Passes

TLE

Source: Space-Track
1  4911U 70025FH  26224.18782038  .00000749  00000-0  29204-3 0  9992
2  4911  99.9621 113.3251 0059530 157.1525 203.2322 14.32347193879619

Track THORAD AGENA D DEB in real time with AllMySat

Download on the App Store